User: anonymous   Login
Location: Clatteringshaws Loch
(55.0508°N, 4.2860°W)
Time: 23:33:34
(UTC+01:00)
Language:

ALOS - Orbit

View from above orbital plane
View from above orbital plane
View from above satellite
View from above satellite

Ground track
Ground track

The orbit data is extracted from the following two-line orbital elements,

1 28931U 06002A   17116.95694816 +.00000280 +00000-0 +64156-4 0  9991
2 28931 097.8477 146.8637 0002490 099.9885 260.1599 14.62342766599977
Epoch (UTC): 26 April 2017 22:58:00
Eccentricity: 0.0002490
inclination: 97.8477°
perigee height: 684 km
apogee height: 687 km
right ascension of ascending node: 146.8637°
argument of perigee: 99.9885°
revolutions per day: 14.62342766
mean anomaly at epoch: 260.1599°
orbit number at epoch: 59997

The dashed part of the orbit path shows where the satellite is in the earth's shadow,  

DLR